鹿林彗星

C/2007 N3 ( Lulin )

English version
Home page
Updated on February 8, 2021

---------------------------------------------------------------------

・ プロフィール

発見日 2007年7月11日
発見光度 18.9等
発見者 Quanzhi Ye (Guangzhou, China), Chi Sheng Lin (Lulin Sky Survey)

・ 写真集

・ 軌道要素

Epoch 2009 Jan. 9.0 TT = JDT 2454840.5
T 2009 Jan. 10.64007 TT                                 MPC
q   1.2122575            (2000.0)            P               Q
z  +0.0000162      Peri.  136.86208     -0.92920778     -0.36941174
 +/-0.000000       Node   338.53479     -0.34631428     +0.86061128
e   0.9999804      Incl.  178.37359     -0.12899351     +0.35054699
From 3598 observations 2007 July 11-2011 Jan. 1, mean residual 0".5.

・ 星図

・ 光度変化

        m1 = 5.5 + 5 logΔ + 11.0 log r  [ ,0]  (              〜2009年 1月10日)
        m1 = 5.5 + 5 logΔ + 12.0 log r  [0, ]  (2009年 1月10日〜              )

---------------------------------------------------------------------

軌道要素はM.P.E.C. 2011-A08に掲載されたものです。
星図はステラナビゲータ Ver.8 (アストロアーツ) で作成したものです。
光度グラフはComet for Windowsで作成したものです。

---------------------------------------------------------------------

Copyright(C) Seiichi Yoshida (comet@aerith.net). All rights reserved.